Observations
| Time | Sensor | AQI | SAQ | Temp °C | Hum % | Pres Pa | CO μg/m³ | H₂S μg/m³ | NO μg/m³ | NO₂ μg/m³ | O₃ μg/m³ | SO₂ μg/m³ | CO₂e PPM | VOC PPM | PM1 μg/m³ | PM2.5 μg/m³ | PM4 μg/m³ | PM10 μg/m³ | TPS µm |
|---|---|---|---|---|---|---|---|---|---|---|---|---|---|---|---|---|---|---|---|
| Wednesday 12 August 2026 | |||||||||||||||||||
| 15:39 | Trim Patrick St | 3 | 36.1 | 32 | 69,687 | 0 | 7.78 | 0.14 | 12.6 | 132.88 | 23.55 | 3.71 | 9.93 | 10.92 | |||||
| 15:39 | Trim Market St | 3 | 37.6 | 28 | 66,829 | 0 | 7.84 | 0.05 | 13.2 | 104.35 | 3.02 | 1.43 | 5.02 | 5.52 | |||||
| 15:38 | Trim Patrick St | 3 | 36.1 | 33 | 69,679 | 0 | 5.26 | 0.14 | 12.47 | 140.43 | 23.91 | 2.86 | 9.11 | 10.02 | |||||
| 15:38 | Trim Market St | 3 | 37.7 | 28 | 66,827 | 0 | 6.58 | 0.07 | 13.77 | 110.52 | 2.58 | 2.14 | 5.03 | 5.53 | |||||
| 15:37 | Trim Patrick St | 3 | 36.2 | 32 | 69,677 | 0 | 4.3 | 0.14 | 12.54 | 141.54 | 23.98 | 5.43 | 10.77 | 11.85 | |||||
| 15:37 | Trim Market St | 3 | 37.8 | 28 | 66,853 | 0 | 7.52 | 0.08 | 13.27 | 105.55 | 3.69 | 1.43 | 5.03 | 6.65 | |||||
| 15:36 | Trim Patrick St | 3 | 36.2 | 31 | 69,699 | 0 | 0.11 | 0.14 | 12.28 | 118.72 | 23.15 | 4.57 | 9.99 | 10.99 | |||||
| 15:35 | Trim Patrick St | 3 | 36.3 | 32 | 69,697 | 0 | 1.29 | 0.13 | 12.63 | 128.08 | 23.36 | 4.57 | 9.97 | 10.96 | |||||
| 15:35 | Trim Market St | 3 | 38.1 | 28 | 66,892 | 0 | 2.12 | 0.08 | 13.17 | 113.46 | 3.94 | 2.85 | 5.59 | 5.77 | |||||
| 15:34 | Trim Patrick St | 3 | 36.4 | 32 | 69,693 | 0 | 0 | 0.11 | 12.71 | 144.96 | 23.56 | 3.71 | 9.97 | 10.96 | |||||
| 15:34 | Trim Market St | 3 | 38.2 | 28 | 66,933 | 0 | 0 | 0.08 | 13.16 | 108.23 | 3.94 | 2.14 | 5.6 | 6.16 | |||||
| 15:33 | Trim Patrick St | 3 | 36.5 | 32 | 69,693 | 0 | 1.24 | 0.09 | 12.22 | 115.13 | 24.47 | 3.71 | 10.77 | 11.85 | |||||
| 15:32 | Trim Patrick St | 3 | 36.6 | 32 | 69,691 | 0 | 0 | 0.08 | 12.74 | 144.68 | 24.34 | 3.71 | 9.97 | 10.97 | |||||
| 15:32 | Trim Market St | 3 | 38.5 | 27 | 66,955 | 0 | 0 | 0.04 | 13.3 | 108.84 | 4.72 | 2.85 | 6.16 | 6.64 | |||||
| 15:31 | Trim Patrick St | 3 | 36.7 | 32 | 69,709 | 0 | 0 | 0.07 | 10.44 | 91.12 | 23.44 | 3.71 | 10.79 | 11.87 | |||||
| 15:31 | Trim Market St | 3 | 38.7 | 27 | 66,957 | 0 | 0 | 0.01 | 13.3 | 109.3 | 4.28 | 1.43 | 5.08 | 5.59 | |||||
| 15:30 | Trim Patrick St | 3 | 36.8 | 31 | 69,707 | 0 | 0 | 0.06 | 12.09 | 110.83 | 24 | 2 | 8.4 | 9.24 | |||||
| 15:30 | Trim Market St | 3 | 38.8 | 27 | 66,984 | 0 | 0 | 0 | 13.39 | 127.87 | 3.67 | 1.43 | 5.09 | 5.6 | |||||
| 15:29 | Trim Patrick St | 3 | 36.9 | 31 | 69,734 | 0 | 0 | 0.05 | 11.14 | 110.29 | 24.76 | 3.71 | 10.01 | 11.01 | |||||
| 15:28 | Trim Patrick St | 3 | 37 | 31 | 69,740 | 0 | 1.25 | 0.03 | 12.78 | 144.49 | 24.76 | 4.57 | 10.82 | 11.9 | |||||